Regional Weather Roundup
Issued by NWS

Home | Current Version | Previous Version | Graphics & Text | Print | Product List | Glossary On
Versions: 1 2 3 4 5 6 7 8 9 10 11 12 13 14 15 16 17 18 19 20 21 22 23 24 25 26 27 28 29 30 31 32 33 34 35 36 37 38 39 40 41 42 43 44 45 46 47 48 49 50
000
ASUS43 KFSD 210902
RWRSD

WEATHER ROUNDUP FOR SOUTH DAKOTA
NATIONAL WEATHER SERVICE SIOUX FALLS SD
400 AM CDT TUE APR 21 2015

NOTE: "FAIR" INDICATES FEW OR NO CLOUDS BELOW 12,000 FEET WITH NO
SIGNIFICANT WEATHER AND/OR OBSTRUCTIONS TO VISIBILITY.


SDZ001>005-009-010-012>017-211000-
NORTHWEST AND NORTH CENTRAL SOUTH DAKOTA

CITY           SKY/WX    TMP DP  RH WIND       PRES   REMARKS
BUFFALO          N/A     35  23  61 W9        29.73R WCI  28
FAITH            N/A     34  21  59 W12       29.78S WCI  25
MOBRIDGE       CLOUDY    35  23  61 N6        29.76R
$$

SDZ012>016-024>037-041>051-057-063-072>074-211000-
SOUTHWEST AND SOUTH CENTRAL SOUTH DAKOTA

CITY           SKY/WX    TMP DP  RH WIND       PRES   REMARKS
RAPID CTY ARPT CLEAR     32  21  64 W7        29.83F WCI  26
PIERRE         CLEAR     32  19  58 SW10      29.78F WCI  24
CUSTER         PTCLDY    30  16  56 W8        29.85F WCI  22
ELLSWORTH AFB  CLEAR     33  22  64 SW8       29.81F WCI  25
PHILIP         CLEAR     28  32 100 W8        29.82F WCI  20
PINE RIDGE     CLEAR     28  21  75 W3        29.89F
WINNER         FAIR      35  18  49 W10       29.82F WCI  27
$$

SDZ004>011-016>023-039-040-211000-
NORTHEAST SOUTH DAKOTA

CITY           SKY/WX    TMP DP  RH WIND       PRES   REMARKS
ABERDEEN       PTCLDY    32  22  66 NW13      29.77R WCI  22
WATERTOWN      CLEAR     32  25  75 NW16      29.69R WCI  21
BROOKINGS      CLEAR     28  25  86 W10       29.71R WCI  19
SISSETON         N/A     33  26  75 NW18G30   29.67R WCI  22
$$

SDZ017-020-022-023-036>040-048>070-211000-
SOUTHEAST SOUTH DAKOTA

CITY           SKY/WX    TMP DP  RH WIND       PRES   REMARKS
SIOUX FALLS    CLEAR     32  22  66 W6        29.72F WCI  26
HURON          CLEAR     29  16  58 NW9       29.76R WCI  20
MITCHELL       CLEAR     30  12  47 W9        29.77F WCI  22
YANKTON        FAIR      36  12  38 W13       29.78S
$$

ABBREVIATIONS USED IN REMARKS
   TC - TEMPERATURE IN CELSIUS
  WCI - WIND CHILL INDEX
   HX - HEAT INDEX
  VSB - VISIBILITY



USA.gov is the U.S. government's official web portal to all federal, state and local government web resources and services.